Hauptseite
METAR-TAF:

METAR-TAF

Flughäfen :

Meierwik

Glücksburg, Deutschland

Breite: 54-50N, Länge: 009-30E, Höhe: 27 m

Beobachtung

Neuester Wetterbericht von vor 1 Stunde und 3 Minuten, um 02:20 UTC
Wind 19 kt aus Ost/Südost, Böen bis zu 33 kt
Temperatur 6°C
Luftfeuchtigkeit 75%
Luftdruck 1020 hPa
Sichtweite 10 km oder mehr
Durchbrochene Bewölkung in der Höhe von 1700 ft

METAR: ETGG 210220Z 12019G33KT 9999 BKN017 06/02 Q1020 WHT

Zeit: 04:23 (03:23 UTC)


TAF: fehlend

Wetterbeobachtungen und Prognosen von mehr als 4000 Flughäfen (METAR und TAF Bericht).

Die verfügbaren Stationen werden durch gelbe und rote Markierungen auf der Karte dargestellt.

Führen Sie die Maus auf sie, um den Namen der Station zu sehen.

Darauf klicken, um die Beobachtung von Wetterbeobachtungen und Prognosen zu sehen.

Um die Karte zu ändern : klicken Sie auf den grünen Tasten mit einem schwarzen Kreuz Zum Vergrößern, auf den grünen Button mit einem Gedankenstrich zu verkleinern, oder auf die grünen Pfeile für benachbarte Karten.


METAR-TAF: